When you browse on this site, cookies collect data to enhance your experience and personalize the content and advertising you see.
Visit our Privacy Policy to learn more. By continuing to use the site, you agree to this use of cookies and data.
  • In Czech Republic
  • List of Countries
  • For 7 days
  • Water Temperature
  • Weather Map
  • Weather Widgets
  • user-avatar
    Login

    Hourly Weather Sydney

    Today, 27 January, Monday

    Time Temperature Precipitation Wind Pressure Humidity
    00:00 +27°C° 0.4 mm 4 mps 758 mmHg 81%
    01:00 +26°C° 0.4 mm 6 mps 759 mmHg 87%
    02:00 +24°C° 0.2 mm 6 mps 759 mmHg 86%
    03:00 +24°C° 0.2 mm 6 mps 759 mmHg 84%
    04:00 +23°C° 0 mm 4 mps 759 mmHg 86%
    05:00 +25°C° 0.5 mm 4 mps 759 mmHg 85%
    06:00 +25°C° 0.5 mm 4 mps 759 mmHg 84%
    07:00 +25°C° 0.5 mm 4 mps 760 mmHg 83%
    08:00 +26°C° 0 mm 4 mps 759 mmHg 80%
    09:00 +27°C° 0 mm 5 mps 759 mmHg 76%
    10:00 +29°C° 0 mm 4 mps 759 mmHg 71%
    11:00 +30°C° 0 mm 4 mps 759 mmHg 66%
    12:00 +32°C° 0 mm 4 mps 759 mmHg 61%
    13:00 +34°C° 0 mm 4 mps 758 mmHg 56%
    14:00 +33°C° 0 mm 4 mps 758 mmHg 58%
    15:00 +33°C° 0 mm 4 mps 757 mmHg 60%
    16:00 +31°C° 0 mm 3 mps 757 mmHg 64%
    17:00 +30°C° 0 mm 4 mps 757 mmHg 69%
    18:00 +29°C° 0 mm 4 mps 758 mmHg 74%
    19:00 +28°C° 0 mm 5 mps 758 mmHg 80%
    20:00 +27°C° 0.1 mm 4 mps 758 mmHg 82%
    21:00 +27°C° 0.1 mm 4 mps 759 mmHg 85%
    22:00 +26°C° 0 mm 3 mps 759 mmHg 83%
    23:00 +26°C° 0 mm 3 mps 759 mmHg 84%

    Tomorrow, 28 January, Tuesday

    Time Temperature Precipitation Wind Pressure Humidity
    00:00 +25°C° 0 mm 2 mps 758 mmHg 85%
    01:00 +25°C° 0 mm 2 mps 758 mmHg 87%
    02:00 +25°C° 0 mm 2 mps 758 mmHg 88%
    03:00 +25°C° 0 mm 2 mps 758 mmHg 88%
    04:00 +25°C° 0 mm 2 mps 758 mmHg 89%
    05:00 +25°C° 0 mm 2 mps 758 mmHg 86%
    06:00 +26°C° 0 mm 2 mps 758 mmHg 83%
    07:00 +27°C° 0 mm 1 mps 759 mmHg 80%
    08:00 +29°C° 0 mm 1 mps 759 mmHg 71%
    09:00 +31°C° 0 mm 1 mps 759 mmHg 62%
    10:00 +33°C° 0 mm 1 mps 758 mmHg 53%
    11:00 +35°C° 0 mm 2 mps 758 mmHg 50%
    12:00 +36°C° 0 mm 3 mps 757 mmHg 48%
    13:00 +37°C° 0 mm 3 mps 757 mmHg 46%
    14:00 +35°C° 0.1 mm 4 mps 756 mmHg 50%
    15:00 +34°C° 0.1 mm 4 mps 756 mmHg 54%
    16:00 +33°C° 0.1 mm 5 mps 755 mmHg 57%
    17:00 +30°C° 0.2 mm 5 mps 756 mmHg 66%
    18:00 +29°C° 0.2 mm 5 mps 757 mmHg 74%
    19:00 +27°C° 0.2 mm 6 mps 757 mmHg 82%
    20:00 +27°C° 0.1 mm 6 mps 758 mmHg 84%
    21:00 +26°C° 0.1 mm 6 mps 759 mmHg 85%
    22:00 +26°C° 0.1 mm 6 mps 760 mmHg 86%
    23:00 +26°C° 0.1 mm 7 mps 760 mmHg 86%

    Day after tomorrow, 29 January, Wednesday

    Time Temperature Precipitation Wind Pressure Humidity
    00:00 +24°C° 0.1 mm 7 mps 759 mmHg 85%
    01:00 +24°C° 0.1 mm 7 mps 759 mmHg 84%
    02:00 +24°C° 0.1 mm 7 mps 760 mmHg 84%
    03:00 +23°C° 0.1 mm 6 mps 760 mmHg 83%
    04:00 +23°C° 0.1 mm 6 mps 760 mmHg 82%
    05:00 +23°C° 0 mm 6 mps 760 mmHg 81%
    06:00 +23°C° 0 mm 6 mps 760 mmHg 79%
    07:00 +23°C° 0 mm 5 mps 761 mmHg 78%
    08:00 +25°C° 0 mm 5 mps 761 mmHg 72%
    09:00 +27°C° 0 mm 4 mps 761 mmHg 66%
    10:00 +28°C° 0 mm 4 mps 762 mmHg 60%
    11:00 +29°C° 0 mm 4 mps 761 mmHg 58%
    12:00 +29°C° 0 mm 4 mps 761 mmHg 56%
    13:00 +30°C° 0 mm 4 mps 760 mmHg 54%
    14:00 +29°C° 0 mm 4 mps 760 mmHg 57%
    15:00 +29°C° 0 mm 5 mps 760 mmHg 60%
    16:00 +29°C° 0 mm 5 mps 760 mmHg 63%
    17:00 +28°C° 0 mm 4 mps 760 mmHg 68%
    18:00 +27°C° 0 mm 4 mps 761 mmHg 73%
    19:00 +26°C° 0 mm 3 mps 761 mmHg 77%
    20:00 +26°C° 0 mm 3 mps 762 mmHg 79%
    21:00 +25°C° 0 mm 2 mps 762 mmHg 81%
    22:00 +25°C° 0 mm 2 mps 762 mmHg 82%
    23:00 +25°C° 0 mm 2 mps 762 mmHg 83%

    30 January, Thursday

    Time Temperature Precipitation Wind Pressure Humidity
    00:00 +25°C° 0 mm 2 mps 762 mmHg 84%
    01:00 +25°C° 0 mm 1 mps 762 mmHg 84%
    02:00 +25°C° 0 mm 1 mps 761 mmHg 85%
    03:00 +25°C° 0 mm 1 mps 761 mmHg 86%
    04:00 +24°C° 0 mm 1 mps 761 mmHg 87%
    05:00 +25°C° 0 mm 1 mps 761 mmHg 84%
    06:00 +25°C° 0 mm 1 mps 762 mmHg 82%
    07:00 +26°C° 0 mm 1 mps 762 mmHg 79%
    08:00 +27°C° 0 mm 1 mps 762 mmHg 74%
    09:00 +28°C° 0 mm 2 mps 762 mmHg 69%
    10:00 +29°C° 0 mm 2 mps 762 mmHg 64%
    11:00 +31°C° 0 mm 3 mps 761 mmHg 57%
    12:00 +34°C° 0 mm 4 mps 761 mmHg 50%
    13:00 +36°C° 0 mm 4 mps 760 mmHg 44%
    14:00 +35°C° 0 mm 5 mps 759 mmHg 47%
    15:00 +34°C° 0 mm 5 mps 759 mmHg 51%
    16:00 +34°C° 0 mm 6 mps 758 mmHg 54%
    17:00 +32°C° 0 mm 6 mps 759 mmHg 60%
    18:00 +30°C° 0 mm 6 mps 759 mmHg 66%
    19:00 +28°C° 0 mm 6 mps 759 mmHg 73%
    20:00 +28°C° 0 mm 6 mps 759 mmHg 76%
    21:00 +27°C° 0 mm 6 mps 760 mmHg 79%
    22:00 +26°C° 0 mm 6 mps 760 mmHg 82%
    23:00 +26°C° 0 mm 5 mps 760 mmHg 83%

    31 January, Friday

    Time Temperature Precipitation Wind Pressure Humidity
    00:00 +26°C° 0 mm 4 mps 759 mmHg 84%
    01:00 +25°C° 0 mm 4 mps 759 mmHg 84%
    02:00 +25°C° 0 mm 4 mps 759 mmHg 85%
    03:00 +25°C° 0 mm 4 mps 759 mmHg 86%
    04:00 +23°C° 0 mm 4 mps 759 mmHg 87%
    05:00 +25°C° 0 mm 3 mps 760 mmHg 82%
    06:00 +26°C° 0 mm 3 mps 760 mmHg 78%
    07:00 +27°C° 0 mm 3 mps 761 mmHg 74%
    08:00 +30°C° 0 mm 3 mps 761 mmHg 63%
    09:00 +34°C° 0 mm 4 mps 761 mmHg 53%
    10:00 +36°C° 0 mm 5 mps 761 mmHg 43%
    11:00 +37°C° 0 mm 5 mps 760 mmHg 41%
    12:00 +39°C° 0 mm 6 mps 759 mmHg 39%
    13:00 +40°C° 0 mm 7 mps 759 mmHg 37%
    14:00 +40°C° 0 mm 7 mps 758 mmHg 39%
    15:00 +39°C° 0 mm 8 mps 758 mmHg 41%
    16:00 +38°C° 0 mm 8 mps 757 mmHg 43%
    17:00 +35°C° 0 mm 8 mps 758 mmHg 48%
    18:00 +33°C° 0 mm 8 mps 758 mmHg 54%
    19:00 +31°C° 0 mm 8 mps 758 mmHg 59%
    20:00 +29°C° 0 mm 7 mps 758 mmHg 62%
    21:00 +28°C° 0 mm 6 mps 759 mmHg 66%
    22:00 +28°C° 0 mm 6 mps 759 mmHg 69%
    23:00 +27°C° 0 mm 5 mps 759 mmHg 71%

    1 February, Saturday

    Time Temperature Precipitation Wind Pressure Humidity
    00:00 +27°C° 0 mm 5 mps 758 mmHg 72%
    01:00 +27°C° 0 mm 4 mps 758 mmHg 73%
    02:00 +27°C° 0 mm 4 mps 758 mmHg 73%
    03:00 +27°C° 0 mm 4 mps 758 mmHg 73%
    04:00 +26°C° 0 mm 4 mps 758 mmHg 73%
    05:00 +27°C° 0 mm 3 mps 758 mmHg 68%
    06:00 +29°C° 0 mm 3 mps 758 mmHg 62%
    07:00 +30°C° 0 mm 3 mps 759 mmHg 57%
    08:00 +34°C° 0 mm 3 mps 759 mmHg 48%
    09:00 +37°C° 0 mm 3 mps 759 mmHg 38%
    10:00 +42°C° 0 mm 3 mps 759 mmHg 29%
    11:00 +44°C° 0 mm 4 mps 758 mmHg 25%
    12:00 +46°C° 0 mm 5 mps 757 mmHg 22%
    13:00 +48°C° 0 mm 5 mps 757 mmHg 19%
    14:00 +47°C° 0 mm 6 mps 756 mmHg 21%
    15:00 +46°C° 0 mm 7 mps 755 mmHg 24%
    16:00 +45°C° 0 mm 7 mps 755 mmHg 26%
    17:00 +43°C° 0 mm 7 mps 755 mmHg 31%
    18:00 +40°C° 0 mm 7 mps 755 mmHg 36%
    19:00 +36°C° 0 mm 7 mps 755 mmHg 41%
    20:00 +35°C° 0 mm 6 mps 755 mmHg 45%
    21:00 +34°C° 0 mm 6 mps 756 mmHg 48%
    22:00 +33°C° 0 mm 5 mps 756 mmHg 52%
    23:00 +33°C° 0 mm 5 mps 756 mmHg 51%
    Show more